Weather History for Taos, NM

Change the Weather History Date:

Wednesday, June 12, 2013

  Actual Average Record
Temperature  
Mean Temperature 70 °F -  
Max Temperature 93 °F 77 °F 93 °F (2013)
Min Temperature 48 °F 41 °F 28 °F (2008)
Cooling Degree Days 6    
Growing Degree Days 20 (Base 50)    
Moisture  
Dew Point 20 °F    
Average Humidity 15    
Maximum Humidity 26    
Minimum Humidity 10    
Precipitation  
Precipitation 0.00 in - - ()
Sea Level Pressure  
Sea Level Pressure 30.29 in    
Wind  
Wind Speed 7 mph (NNW)    
Max Wind Speed 21 mph    
Max Gust Speed 25 mph    
Visibility 10 miles    
Events      
Averages and records for this station are not official NWS values.
T = Trace of Precipitation, MM = Missing Value Source: NWS Daily Summary

Daily Weather History Graph

Daily Weather History Graph

Search for Another Location

Airport:

Trip Planner

Search our weather history database for the weather conditions in past years. The results will help you decide how hot, cold, wet, or windy it might be!

Date:

Astronomy

Jun. 12, 2013 Rise Set
Actual Time 5:44 AM MDT 8:21 PM MDT
Civil Twilight 5:13 AM MDT 8:51 PM MDT
Nautical Twilight 4:35 AM MDT 9:29 PM MDT
Astronomical Twilight 3:53 AM MDT 10:11 PM MDT
Moon 9:21 AM MDT (6/12) 11:04 PM MDT (6/12)
Length of Visible Light 15h 38m
Length of Day
14h 37m
Waxing Crescent, 14% of the Moon is Illuminated
Jun 12
Waxing Crescent
Jun 16
First Quarter
Jun 23
Full
Jun 29
Last Quarter
Jul 8
New

Hourly Weather History & Observations

Time (MDT) Temp. Dew Point Humidity Pressure Visibility Wind Dir Wind Speed Gust Speed Precip Events Conditions
12:15 AM 59.0 °F 10.4 °F 15% 30.27 in 10.0 mi SSE 4.6 mph - N/A   Clear
12:35 AM 57.2 °F 10.4 °F 16% 30.27 in 10.0 mi ESE 4.6 mph - N/A   Clear
12:55 AM 57.2 °F 8.6 °F 14% 30.27 in 10.0 mi East 6.9 mph - N/A   Clear
1:15 AM 55.4 °F 10.4 °F 17% 30.27 in 10.0 mi SE 8.1 mph - N/A   Clear
1:35 AM 59.0 °F 12.2 °F 16% 30.27 in 10.0 mi ESE 8.1 mph - N/A   Clear
1:55 AM 53.6 °F 8.6 °F 16% 30.27 in 10.0 mi ESE 8.1 mph - N/A   Clear
2:15 AM 51.8 °F 10.4 °F 19% 30.27 in 10.0 mi ESE 5.8 mph - N/A   Clear
2:35 AM 53.6 °F 14.0 °F 21% 30.28 in 10.0 mi East 6.9 mph - N/A   Clear
2:55 AM 50.0 °F 10.4 °F 20% 30.28 in 10.0 mi North 5.8 mph - N/A   Clear
3:15 AM 51.8 °F 15.8 °F 24% 30.28 in 10.0 mi NNW 3.5 mph - N/A   Clear
3:35 AM 53.6 °F 15.8 °F 22% 30.29 in 10.0 mi Calm Calm - N/A   Clear
3:55 AM 51.8 °F 14.0 °F 22% 30.29 in 10.0 mi NNE 5.8 mph - N/A   Clear
4:15 AM 50.0 °F 12.2 °F 22% 30.29 in 10.0 mi NNE 9.2 mph - N/A   Clear
4:35 AM 53.6 °F 14.0 °F 21% 30.30 in 10.0 mi North 8.1 mph - N/A   Clear
4:55 AM 50.0 °F 12.2 °F 22% 30.30 in 10.0 mi North 5.8 mph - N/A   Clear
5:15 AM 51.8 °F 14.0 °F 22% 30.31 in 10.0 mi North 3.5 mph - N/A   Clear
5:35 AM 48.2 °F 12.2 °F 24% 30.31 in 10.0 mi North 6.9 mph - N/A   Clear
5:55 AM 50.0 °F 15.8 °F 26% 30.32 in 10.0 mi Calm Calm - N/A   Clear
6:15 AM 48.2 °F 12.2 °F 24% 30.32 in 10.0 mi NNE 6.9 mph - N/A   Clear
6:35 AM 51.8 °F 15.8 °F 24% 30.33 in 10.0 mi North 4.6 mph - N/A   Clear
6:55 AM 55.4 °F 17.6 °F 23% 30.33 in 10.0 mi North 8.1 mph - N/A   Clear
7:15 AM 57.2 °F 17.6 °F 21% 30.32 in 10.0 mi North 11.5 mph - N/A   Clear
7:35 AM 59.0 °F 17.6 °F 20% 30.32 in 10.0 mi North 9.2 mph - N/A   Clear
7:55 AM 60.8 °F 19.4 °F 20% 30.34 in 10.0 mi Calm Calm - N/A   Clear
8:15 AM 62.6 °F 19.4 °F 19% 30.34 in 10.0 mi Calm Calm - N/A   Clear
8:35 AM 68.0 °F 21.2 °F 17% 30.34 in 10.0 mi SE 5.8 mph - N/A   Clear
8:55 AM 71.6 °F 21.2 °F 15% 30.34 in 10.0 mi Calm Calm - N/A   Clear
9:15 AM 75.2 °F 21.2 °F 13% 30.34 in 10.0 mi NNW 5.8 mph - N/A   Clear
9:35 AM 77.0 °F 21.2 °F 12% 30.34 in 10.0 mi North 3.5 mph - N/A   Clear
9:55 AM 80.6 °F 21.2 °F 11% 30.34 in 10.0 mi Calm Calm - N/A   Clear
10:15 AM 82.4 °F 21.2 °F 10% 30.33 in 10.0 mi ENE 3.5 mph - N/A   Clear
10:35 AM 82.4 °F 23.0 °F 11% 30.33 in 10.0 mi SE 3.5 mph - N/A   Clear
10:55 AM 82.4 °F 23.0 °F 11% 30.33 in 10.0 mi WSW 3.5 mph - N/A   Clear
11:15 AM 84.2 °F 23.0 °F 11% 30.34 in 10.0 mi West 8.1 mph - N/A   Clear
11:35 AM 86.0 °F 23.0 °F 10% 30.33 in 10.0 mi West 11.5 mph - N/A   Clear
11:55 AM 84.2 °F 24.8 °F 11% 30.33 in 9.0 mi WSW 11.5 mph - N/A   Clear
12:15 PM 86.0 °F 24.8 °F 11% 30.32 in 10.0 mi WNW 8.1 mph - N/A   Clear
12:35 PM 87.8 °F 24.8 °F 10% 30.32 in 10.0 mi NW 10.4 mph 17.3 mph N/A   Clear
12:55 PM 87.8 °F 24.8 °F 10% 30.31 in 10.0 mi WNW 9.2 mph 19.6 mph N/A   Clear
1:15 PM 87.8 °F 26.6 °F 11% 30.31 in 10.0 mi WNW 13.8 mph 19.6 mph N/A   Clear
1:35 PM 89.6 °F 26.6 °F 10% 30.30 in 10.0 mi WSW 15.0 mph 18.4 mph N/A   Clear
1:55 PM 91.4 °F 26.6 °F 10% 30.29 in 10.0 mi West 13.8 mph 21.9 mph N/A   Clear
2:15 PM 89.6 °F 26.6 °F 10% 30.28 in 10.0 mi West 10.4 mph - N/A   Clear
2:35 PM 91.4 °F 26.6 °F 10% 30.27 in 10.0 mi WSW 20.7 mph 25.3 mph N/A   Clear
2:55 PM 89.6 °F 26.6 °F 10% 30.27 in 10.0 mi SW 13.8 mph 19.6 mph N/A   Clear
3:15 PM 87.8 °F 24.8 °F 10% 30.27 in 10.0 mi WSW 10.4 mph 16.1 mph N/A   Clear
3:35 PM 87.8 °F 26.6 °F 11% 30.26 in 10.0 mi NNW 5.8 mph - N/A   Clear
3:55 PM 91.4 °F 26.6 °F 10% 30.25 in 10.0 mi North 11.5 mph 18.4 mph N/A   Clear
4:15 PM 91.4 °F 28.4 °F 10% 30.24 in 10.0 mi WNW 13.8 mph 19.6 mph N/A   Clear
4:35 PM 93.2 °F 28.4 °F 10% 30.23 in 10.0 mi NW 8.1 mph 17.3 mph N/A   Clear
4:55 PM 91.4 °F 28.4 °F 10% 30.23 in 10.0 mi WSW 9.2 mph 20.7 mph N/A   Clear
5:15 PM 89.6 °F 26.6 °F 10% 30.22 in 10.0 mi SW 11.5 mph - N/A   Clear
5:35 PM 89.6 °F 26.6 °F 10% 30.22 in 10.0 mi SSW 10.4 mph - N/A   Clear
5:55 PM 91.4 °F 28.4 °F 10% 30.21 in 10.0 mi SSW 11.5 mph 19.6 mph N/A   Clear
6:15 PM 89.6 °F 26.6 °F 10% 30.21 in 10.0 mi WSW 16.1 mph 20.7 mph N/A   Clear
6:35 PM 89.6 °F 26.6 °F 10% 30.21 in 10.0 mi WSW 17.3 mph 24.2 mph N/A   Clear
6:55 PM 89.6 °F 26.6 °F 10% 30.21 in 10.0 mi WSW 17.3 mph - N/A   Clear
7:15 PM 87.8 °F 24.8 °F 10% 30.22 in 10.0 mi West 15.0 mph - N/A   Clear
7:35 PM 84.2 °F 24.8 °F 11% 30.22 in 10.0 mi WSW 11.5 mph - N/A   Clear
7:55 PM 82.4 °F 21.2 °F 10% 30.23 in 10.0 mi WNW 13.8 mph - N/A   Clear
8:15 PM 80.6 °F 19.4 °F 10% 30.24 in 10.0 mi NW 11.5 mph - N/A   Clear
8:35 PM 75.2 °F 17.6 °F 11% 30.25 in 10.0 mi NW 4.6 mph - N/A   Clear
8:55 PM 73.4 °F 15.8 °F 11% 30.27 in 10.0 mi ENE 5.8 mph - N/A   Clear
9:15 PM 69.8 °F 12.2 °F 11% 30.28 in 10.0 mi ESE 10.4 mph - N/A   Clear
9:35 PM 69.8 °F 15.8 °F 13% 30.28 in 10.0 mi ESE 9.2 mph - N/A   Clear
9:55 PM 71.6 °F 17.6 °F 13% 30.29 in 10.0 mi East 6.9 mph - N/A   Clear
10:15 PM 68.0 °F 15.8 °F 13% 30.29 in 10.0 mi East 9.2 mph - N/A   Clear
10:35 PM 66.2 °F 19.4 °F 17% 30.29 in 10.0 mi East 6.9 mph - N/A   Clear
10:55 PM 64.4 °F 19.4 °F 18% 30.30 in 10.0 mi East 6.9 mph - N/A   Clear
11:15 PM 66.2 °F 21.2 °F 18% 30.30 in 10.0 mi ENE 8.1 mph - N/A   Clear
11:35 PM 64.4 °F 19.4 °F 18% 30.29 in 10.0 mi NE 4.6 mph - N/A   Clear
11:55 PM 68.0 °F 24.8 °F 20% 30.30 in 10.0 mi East 8.1 mph - N/A   Clear